Terug naar catalogus

CZ-6A DEB

ActiefSSO
NORAD 55875·DEBRIS·🇨🇳 China

Gelanceerd Nov 11, 2022 vanaf Taiyuan Satellite Launch Center

Loading…

Volgende Passages (komende 24 uur)

TLE

VersSource: Space-Track

Epoch: Sep 14, 2026, 11:27 UTC

1 55875U 22151ZX  26257.47770127  .00001889  00000-0  89621-3 0  9993
2 55875  98.8237 266.2890 0043538  59.1077 301.4369 14.20234653186162

Volg CZ-6A DEB in realtime met AllMySat

Download on the App Store